Total_Precipitation_Accumulation
0.22 0.53 1.20 1.76 2.70 2.93 2.16 1.26 0.97 0.70 0.61 0.71 0.66 0.58 0.72 1.00 1.51 2.67 2.73 2.62 2.14 2.01 2.19 2.75 3.32 3.17 2.90 2.73 2.68 2.63 2.42 2.40 2.59 2.80 2.81 2.95 3.07 3.18 3.29 3.47 3.63 3.87 4.29 4.16 3.72 3.27 3.11 3.04 2.91
0.48 0.91 1.57 2.26 3.11 2.92 1.98 1.15 0.90 0.60 0.58 0.61 0.53 0.49 0.62 0.76 0.95 1.65 2.39 2.43 1.86 1.66 1.86 2.24 2.78 2.89 2.66 2.48 2.46 2.43 2.37 2.40 2.66 2.97 2.85 2.91 3.01 3.18 3.41 3.77 3.80 3.87 3.84 3.46 3.32 2.98 2.77 2.59 2.63
0.81 1.25 1.93 2.52 2.33 2.05 1.36 0.83 0.63 0.50 0.60 0.61 0.52 0.54 0.76 1.13 1.25 1.67 1.95 1.83 1.58 1.47 1.69 2.22 2.54 2.56 2.52 2.53 2.69 2.61 2.62 2.68 2.93 3.03 2.81 2.82 2.84 2.99 3.30 3.88 3.81 3.54 3.24 3.02 3.04 2.79 2.64 2.34 2.27
1.03 1.64 1.88 1.89 1.57 1.18 0.83 0.67 0.50 0.47 0.58 0.54 0.52 0.80 1.13 1.35 1.20 1.33 1.44 1.37 1.24 1.34 1.67 2.14 2.30 2.07 2.15 2.49 2.62 2.69 2.81 2.99 3.13 2.89 2.82 2.78 2.81 2.84 3.04 3.37 3.33 3.19 2.90 2.81 2.75 2.60 2.40 2.26 2.23
1.20 1.86 2.03 1.48 1.09 0.84 0.64 0.55 0.48 0.46 0.43 0.51 0.63 1.08 1.58 1.62 1.14 1.19 1.27 1.14 1.10 1.42 1.75 1.91 2.13 1.89 1.77 1.99 2.30 2.61 2.91 3.23 3.13 2.76 2.57 2.51 2.52 2.57 2.66 2.81 2.85 2.83 2.67 2.62 2.55 2.44 2.21 2.26 2.25
1.49 1.72 1.60 1.11 0.84 0.62 0.56 0.50 0.44 0.41 0.46 0.55 0.70 0.94 1.77 1.81 1.38 1.46 1.35 1.33 1.33 1.47 1.61 1.85 2.03 1.83 1.74 1.87 2.00 2.25 2.72 3.04 2.84 2.52 2.36 2.26 2.17 2.17 2.26 2.45 2.63 2.62 2.46 2.32 2.27 2.24 2.17 2.16 2.09
1.50 1.52 1.16 0.74 0.65 0.56 0.47 0.40 0.40 0.43 0.59 0.67 0.74 1.10 1.94 2.17 1.71 1.52 1.56 1.67 1.62 1.69 1.89 1.90 1.76 1.75 1.92 2.12 2.24 2.28 2.58 2.69 2.55 2.44 2.29 2.15 2.05 2.11 2.13 2.16 2.39 2.46 2.38 2.29 2.23 2.17 2.07 2.08 2.05
0.94 0.94 0.78 0.55 0.52 0.53 0.38 0.32 0.37 0.46 0.63 0.74 0.89 1.28 2.04 2.12 1.73 1.58 1.70 2.04 1.94 1.89 1.90 1.83 1.65 1.70 1.76 2.02 2.44 2.54 2.56 2.56 2.50 2.39 2.31 2.17 2.09 2.24 2.26 2.04 2.36 2.48 2.56 2.48 2.46 2.49 2.19 2.15 2.29
0.59 0.76 0.67 0.47 0.43 0.43 0.35 0.30 0.36 0.49 0.62 0.75 1.03 1.26 1.48 1.52 1.61 1.57 1.84 2.30 2.38 2.15 2.04 1.85 1.51 1.65 1.86 2.09 2.25 2.41 2.46 2.62 2.72 2.67 2.51 2.51 2.62 2.62 2.72 2.45 2.86 2.93 2.95 2.86 2.85 2.90 2.75 2.67 2.54
0.50 0.62 0.51 0.31 0.30 0.32 0.30 0.28 0.37 0.66 0.89 1.16 1.42 1.41 1.28 1.32 1.54 1.69 1.93 2.41 2.52 2.41 2.22 1.99 1.72 1.76 2.04 2.02 2.05 2.28 2.28 2.50 2.67 2.86 2.73 3.05 3.37 3.19 2.52 2.87 3.37 3.58 3.59 3.46 3.49 3.60 3.36 3.01 2.75
0.41 0.43 0.31 0.27 0.26 0.22 0.20 0.26 0.33 0.53 1.10 1.62 1.86 1.82 1.67 1.46 1.67 2.03 2.42 2.80 2.60 2.36 2.27 2.21 2.07 2.08 2.01 2.15 2.13 2.33 2.54 2.97 2.90 2.85 2.84 3.30 3.20 2.90 2.69 3.04 3.54 3.99 3.77 3.56 3.67 3.82 3.35 3.38 3.70
0.34 0.27 0.19 0.18 0.19 0.15 0.18 0.27 0.41 0.57 1.09 1.38 1.55 1.62 1.62 1.61 1.76 2.00 2.31 2.64 2.87 2.81 2.69 2.61 2.51 2.46 2.51 2.46 2.35 2.29 2.41 2.70 2.84 3.09 2.84 3.19 3.50 3.44 3.38 3.73 3.71 3.99 4.11 4.47 4.22 4.34 4.08 3.99 3.80
0.27 0.20 0.15 0.14 0.14 0.15 0.18 0.29 0.47 0.68 0.94 0.98 1.03 1.13 1.39 1.69 2.13 2.43 2.54 2.90 3.04 3.21 3.10 3.09 3.00 3.01 3.09 3.10 2.96 2.43 2.60 2.72 2.86 3.20 3.24 3.37 3.74 3.92 3.99 4.02 3.97 3.65 3.93 4.38 4.66 4.24 4.55 4.56 4.12
0.23 0.18 0.16 0.16 0.16 0.19 0.21 0.30 0.45 0.70 0.81 0.84 0.91 1.11 1.39 1.72 2.03 2.49 2.77 3.19 3.21 3.31 3.55 3.77 3.69 3.60 3.68 3.63 3.54 3.31 3.10 3.30 3.30 3.49 3.73 3.93 4.29 4.53 4.47 4.27 4.19 3.77 3.68 4.02 4.25 4.24 4.75 4.56 4.26
0.22 0.23 0.24 0.21 0.20 0.23 0.39 0.63 0.70 0.82 0.81 0.96 1.06 1.33 1.51 1.81 2.19 2.30 2.47 2.77 3.13 3.48 4.09 4.48 4.50 4.38 4.43 4.44 4.16 3.86 3.80 3.81 4.10 4.41 4.49 4.51 4.66 5.01 4.80 4.54 4.11 3.84 3.81 4.06 4.05 4.10 4.26 4.02 3.89
0.29 0.40 0.48 0.37 0.28 0.29 0.50 1.04 0.97 0.91 0.94 1.11 1.14 1.39 1.74 1.85 2.18 2.32 2.36 2.62 3.28 3.83 4.55 4.96 5.06 5.26 5.17 5.25 5.04 4.61 4.50 4.52 4.58 4.73 4.95 4.73 4.71 4.65 4.76 4.44 3.91 3.90 3.83 3.92 4.14 4.01 4.09 4.06 4.02
0.39 0.48 0.53 0.52 0.33 0.34 0.51 0.95 1.00 0.94 1.09 1.22 1.37 1.41 1.57 1.81 2.25 2.54 2.72 2.87 3.52 4.22 4.96 5.53 6.11 6.32 6.14 5.93 5.62 5.32 5.30 5.16 4.99 4.99 5.01 4.89 4.54 4.33 4.60 4.34 4.09 3.93 3.86 3.78 3.55 4.06 4.22 4.25 4.23
0.44 0.44 0.51 0.57 0.35 0.34 0.58 0.83 1.00 1.08 1.23 1.37 1.40 1.37 1.50 1.86 2.09 2.45 2.81 3.24 3.83 4.33 5.10 5.85 6.62 6.82 6.55 6.04 5.86 5.84 5.65 5.34 5.08 4.86 4.86 4.55 4.32 3.94 4.21 3.92 3.83 3.92 4.12 3.99 4.05 4.41 4.42 4.06 4.15
0.30 0.36 0.49 0.51 0.35 0.40 0.62 0.82 1.01 1.21 1.35 1.41 1.50 1.46 1.65 1.95 2.13 2.51 2.92 3.40 3.93 4.48 5.20 5.90 6.55 6.70 6.57 6.25 5.95 5.72 5.28 4.97 4.64 4.39 4.27 4.07 3.76 3.62 4.02 3.65 4.01 3.87 3.85 3.72 3.71 3.97 4.01 3.63 3.80
0.26 0.36 0.50 0.49 0.36 0.42 0.67 0.92 1.17 1.25 1.19 1.17 1.34 1.43 1.51 1.74 2.06 2.44 3.02 3.33 3.67 4.21 4.83 5.26 5.41 5.27 5.19 5.30 5.26 5.00 5.00 4.82 4.76 4.61 4.50 4.04 3.82 3.69 3.44 3.69 3.51 3.48 3.69 3.48 3.45 3.71 3.70 3.33 3.66
0.20 0.31 0.40 0.44 0.45 0.55 0.81 1.23 1.46 1.44 1.16 1.05 1.07 1.20 1.34 1.48 1.70 2.07 2.64 3.00 3.20 3.73 4.09 4.11 4.14 4.17 4.33 4.44 4.40 4.45 4.68 4.77 4.88 4.85 4.64 4.27 4.02 3.82 3.59 3.46 3.32 3.33 3.14 3.34 3.42 3.47 3.62 3.60 3.50
0.22 0.20 0.26 0.33 0.51 0.88 1.00 1.61 1.86 1.90 1.59 1.24 1.12 1.26 1.34 1.40 1.43 1.76 2.12 2.36 2.67 3.00 3.17 3.17 3.32 3.52 3.66 3.76 3.75 3.66 3.70 3.96 4.25 4.55 4.71 4.64 4.33 4.01 3.68 3.43 3.23 3.10 2.90 3.22 2.90 3.06 3.41 3.66 3.34
0.15 0.15 0.22 0.35 0.50 0.73 0.86 1.26 1.81 2.08 2.01 1.58 1.29 1.22 1.17 1.30 1.48 1.66 1.79 2.00 2.12 2.23 2.42 2.50 2.78 3.28 3.51 3.58 3.69 3.65 3.41 3.43 3.55 3.72 3.95 3.96 3.98 3.78 3.37 3.28 3.20 3.02 2.82 2.87 2.88 3.25 3.25 3.22 3.14
0.14 0.21 0.34 0.50 0.77 1.15 0.96 1.12 1.71 1.87 1.89 1.49 1.26 1.18 1.09 1.08 1.19 1.40 1.68 1.81 1.81 1.84 2.01 2.24 2.58 3.17 3.49 3.56 3.46 3.49 3.53 3.62 3.53 3.50 3.61 3.52 3.49 3.40 3.10 2.95 3.09 2.98 2.86 2.92 2.92 3.03 3.08 3.22 3.29
0.17 0.36 0.85 1.35 1.73 1.71 1.02 0.99 1.30 1.37 1.24 1.20 1.07 1.11 1.17 1.07 0.99 0.99 1.17 1.43 1.47 1.47 1.64 1.91 2.19 2.67 2.99 3.15 3.01 2.99 3.23 3.47 3.35 3.17 3.12 3.10 2.95 2.87 2.82 2.82 2.94 2.83 2.89 2.95 3.06 3.10 3.07 3.19 3.22
0.17 0.29 0.73 1.12 1.24 1.33 1.17 1.54 1.59 1.19 0.99 0.90 0.81 0.89 0.98 0.88 0.78 0.74 0.81 0.99 1.26 1.29 1.41 1.56 1.83 2.10 2.42 2.65 2.71 2.77 2.99 3.15 3.10 3.32 3.04 2.88 2.53 2.42 2.54 2.76 2.75 2.64 2.63 2.67 3.15 3.16 3.16 3.27 3.18
0.19 0.21 0.33 0.51 0.72 1.09 1.36 1.59 1.51 1.24 1.13 0.93 0.77 0.76 0.75 0.68 0.69 0.73 0.80 1.01 1.10 1.09 1.19 1.35 1.57 1.77 2.05 2.30 2.50 2.56 2.56 2.60 2.76 2.94 2.87 2.70 2.63 2.35 2.44 2.56 2.82 2.87 2.92 2.97 3.17 3.13 3.15 3.38 3.32
0.17 0.20 0.28 0.40 0.68 0.97 1.28 1.74 1.80 1.53 1.30 1.10 1.02 0.83 0.73 0.72 0.73 0.74 0.76 0.82 0.87 0.93 1.07 1.30 1.51 1.55 1.81 2.22 2.47 2.40 2.48 2.41 2.58 2.55 2.53 2.57 2.50 2.48 2.58 2.60 2.70 2.89 3.01 3.03 3.16 3.12 3.18 3.39 3.40
0.22 0.20 0.23 0.31 0.41 0.64 1.21 1.43 1.25 1.24 1.17 1.13 1.03 0.94 0.87 0.82 0.79 0.76 0.77 0.78 0.89 0.84 0.93 1.14 1.31 1.47 1.79 2.19 2.52 2.56 2.49 2.49 2.55 2.37 2.31 2.45 2.49 2.50 2.64 2.66 2.65 2.62 2.77 3.00 3.22 3.09 3.23 3.36 3.39
0.22 0.22 0.24 0.33 0.35 0.42 0.68 1.02 0.74 0.83 0.96 1.02 0.92 0.84 0.78 0.69 0.67 0.62 0.61 0.69 0.70 0.73 0.85 1.19 1.50 1.89 2.11 2.46 2.85 2.95 2.73 2.51 2.35 2.15 2.14 2.32 2.51 2.55 2.56 2.57 2.55 2.47 2.60 2.90 3.03 3.12 3.42 3.56 3.41